Regional Weather Roundup
Issued by NWS

Home | Current Version | Previous Version | Graphics & Text | Print | Product List | Glossary On
Versions: 1 2 3 4 5 6 7 8 9 10 11 12 13 14 15 16 17 18 19 20 21 22 23 24 25 26 27 28 29 30 31 32 33 34 35 36 37 38 39 40 41 42 43 44 45 46 47 48 49 50
000
ASUS43 KBIS 300510
RWRND

NORTH DAKOTA REGIONAL WEATHER ROUNDUP
NATIONAL WEATHER SERVICE BISMARCK ND
1200 AM CDT TUE SEP 30 2014

NOTE: "FAIR" INDICATES FEW OR NO CLOUDS BELOW 12,000 FEET WITH NO
SIGNIFICANT WEATHER AND/OR OBSTRUCTIONS TO VISIBILITY.


NDZ001>003-009>011-017-300600-
NORTHWEST NORTH DAKOTA

CITY           SKY/WX    TMP DP  RH WIND       PRES   REMARKS
WILLISTON      CLOUDY    53  48  83 SE8       29.88F
MINOT          CLOUDY    52  46  80 SE13      29.94F
MINOT AFB      CLOUDY    52  49  89 SE16      29.93F
$$

NDZ018>021-031>035-040>046-300600-
SOUTHWEST NORTH DAKOTA

CITY           SKY/WX    TMP DP  RH WIND       PRES   REMARKS
BISMARCK       CLOUDY    55  49  80 E12       29.95F
DICKINSON      CLOUDY    51  49  92 SE10      29.86F
GARRISON         N/A     53  48  83 SE13G24   29.94F
HETTINGER ARPT LGT RAIN  52  50  93 E10       29.87F FOG
$$

NDZ004>008-012>016-024-026-027-054-300600-
NORTHEAST NORTH DAKOTA

CITY           SKY/WX    TMP DP  RH WIND       PRES   REMARKS
GRAND FORKS    CLEAR     48  44  86 SE8       30.05S
GRND FRKS AFB  CLEAR     44  44  99 SE6       30.06S
DEVILS LAKE    CLEAR     46  39  76 E10       30.00F
$$

NDZ022-023-025-028>030-036>039-047>053-300600-
SOUTHEAST NORTH DAKOTA

CITY           SKY/WX    TMP DP  RH WIND       PRES   REMARKS
FARGO          CLEAR     49  44  83 SE12      30.06R
JAMESTOWN      PTCLDY    50  46  86 SE10      29.99F
$$



USA.gov is the U.S. government's official web portal to all federal, state and local government web resources and services.